EW9560 Weather Reports


time (UTC)temp
C
wind
direction
speed
KPH
gust
KPH
rain 1hr
cm
rain 24hr
cm
rain mn
cm
humidity
%
barometer
mb
20260508153036 12 291 19.3 40.2 0.00 0.00 0.00 65 1020.4
20260508151538 12 289 22.5 37.0 0.00 0.00 0.00 65 1020.2
20260508150032 12 298 19.3 38.6 0.00 0.00 0.00 62 1020.0
20260508144535 12 284 19.3 37.0 0.00 0.00 0.00 61 1019.7
20260508143036 12 284 17.7 41.8 0.00 0.00 0.00 59 1019.4
20260508141651 12 282 17.7 40.2 0.00 0.00 0.00 57 1019.2
20260508140111 12 278 17.7 35.4 0.00 0.00 0.00 57 1019.0
20260508134610 12 283 14.5 30.6 0.00 0.00 0.00 58 1019.0
20260508133035 12 279 14.5 32.2 0.00 0.00 0.00 60 1018.8
20260508131531 12 281 14.5 32.2 0.00 0.00 0.00 62 1018.7
20260508130037 13 285 16.1 33.8 0.00 0.00 0.00 62 1018.5
20260508124537 13 285 14.5 32.2 0.00 0.00 0.00 62 1018.4
20260508123035 13 285 16.1 38.6 0.00 0.00 0.00 61 1018.4
20260508121531 13 295 11.3 25.7 0.00 0.00 0.00 60 1018.3
20260508120153 13 301 9.7 22.5 0.00 0.00 0.00 60 1018.3
20260508114536 12 285 11.3 27.4 0.00 0.00 0.00 62 1018.2
20260508113036 7 197 3.2 14.5 0.00 0.00 0.00 76 1017.8
20260508104534 8 173 1.6 6.4 0.00 0.00 0.00 70 1017.8
20260508103045 8 179 1.6 6.4 0.00 0.00 0.00 70 1017.8
20260508103036 8 199 4.8 9.7 0.00 0.00 0.00 71 1017.9
20260508094534 9 150 1.6 6.4 0.00 0.00 0.00 65 1017.8
20260508093031 10 33 0.0 6.4 0.00 0.00 0.00 63 1017.8
20260508091535 10 271 1.6 6.4 0.00 0.00 0.00 61 1017.8
20260508090036 10 226 0.0 8.0 0.00 0.00 0.00 60 1017.7
20260508084534 11 172 3.2 8.0 0.00 0.00 0.00 56 1017.7
20260508083035 11 154 0.0 4.8 0.00 0.00 0.00 52 1017.7
20260508081535 12 40 0.0 4.8 0.00 0.00 0.00 49 1017.7
20260508080034 13 325 0.0 12.9 0.00 0.00 0.00 46 1017.7
20260508074537 15 283 1.6 9.7 0.00 0.00 0.00 42 1017.8
20260508073034 15 209 1.6 17.7 0.00 0.00 0.00 41 1017.7
20260508071534 15 293 9.7 22.5 0.00 0.00 0.00 41 1017.6
20260508070109 15 290 9.7 19.3 0.00 0.00 0.00 41 1017.6
20260508064535 15 286 11.3 22.5 0.00 0.00 0.00 41 1017.6
20260508054531 16 292 11.3 25.7 0.00 0.00 0.00 40 1017.7
20260508053033 16 286 11.3 29.0 0.00 0.00 0.00 40 1017.7
20260508051534 16 285 11.3 25.7 0.00 0.00 0.00 40 1017.7
20260508050034 17 292 12.9 27.4 0.00 0.00 0.00 40 1017.5
20260508044533 17 293 14.5 37.0 0.00 0.00 0.00 41 1017.5
20260508043031 17 290 16.1 29.0 0.00 0.00 0.00 40 1017.4
20260508041532 17 282 12.9 25.7 0.00 0.00 0.00 38 1017.3
20260508034538 17 283 11.3 27.4 0.00 0.00 0.00 37 1017.2
20260508033035 17 293 11.3 24.1 0.00 0.00 0.00 34 1017.0
20260508031537 18 298 11.3 20.9 0.00 0.00 0.00 32 1016.9
20260508030035 18 297 12.9 25.7 0.00 0.00 0.00 29 1016.8
20260508024534 18 298 14.5 37.0 0.00 0.00 0.00 27 1016.7
20260508023108 19 300 14.5 29.0 0.00 0.00 0.00 26 1016.6
20260508021536 20 296 16.1 30.6 0.00 0.00 0.00 25 1016.6
20260508014535 20 296 16.1 32.2 0.00 0.00 0.00 24 1016.5
20260508013033 20 298 16.1 37.0 0.00 0.00 0.00 24 1016.6
20260508011531 21 299 14.5 35.4 0.00 0.00 0.00 24 1016.7
20260508010153 20 301 14.5 30.6 0.00 0.00 0.00 23 1016.8
20260508010143 20 296 17.7 35.4 0.00 0.00 0.00 22 1016.7
20260508003035 21 298 17.7 32.2 0.00 0.00 0.00 22 1016.7
20260508000039 21 297 17.7 41.8 0.00 0.00 0.00 22 1016.6
20260507234536 21 300 17.7 38.6 0.00 0.00 0.00 21 1016.7
20260507233108 21 298 19.3 45.1 0.00 0.00 0.00 21 1016.6
20260507230034 21 293 20.9 40.2 0.00 0.00 0.00 25 1016.9
20260507223031 21 299 20.9 40.2 0.00 0.00 0.00 28 1017.1
20260507221537 20 295 20.9 48.3 0.00 0.00 0.00 30 1017.3
20260507214533 20 296 16.1 40.2 0.00 0.00 0.00 33 1017.7
20260507210032 20 296 20.9 40.2 0.00 0.00 0.00 38 1017.8
20260507203037 19 296 20.9 37.0 0.00 0.00 0.00 40 1018.0
20260507201536 19 290 20.9 45.1 0.00 0.00 0.00 40 1018.3
20260507200036 18 298 19.3 38.6 0.00 0.00 0.00 40 1018.5
20260507194532 18 293 20.9 38.6 0.00 0.00 0.00 43 1018.6
20260507193034 18 290 20.9 43.5 0.00 0.00 0.00 45 1018.7
20260507191534 17 293 17.7 35.4 0.00 0.00 0.00 47 1019.0
20260507190029 17 296 19.3 40.2 0.00 0.00 0.00 48 1019.4
20260507184536 17 294 11.3 22.5 0.00 0.00 0.00 52 1020.0
20260507181534 16 285 9.7 20.9 0.00 0.00 0.00 54 1020.2
20260507180031 16 278 9.7 22.5 0.00 0.00 0.00 55 1020.2
20260507174536 15 283 16.1 30.6 0.00 0.00 0.00 57 1020.2
20260507173034 15 290 12.9 35.4 0.00 0.00 0.00 60 1020.3
20260507171539 14 299 17.7 37.0 0.00 0.00 0.00 61 1020.2
20260507170033 13 302 20.9 40.2 0.00 0.00 0.00 62 1020.1
20260507164533 13 297 20.9 40.2 0.00 0.00 0.00 64 1020.0
20260507163037 13 292 20.9 43.5 0.00 0.00 0.00 65 1020.3
20260507160111 13 289 19.3 43.5 0.00 0.00 0.00 68 1020.4
20260507154534 12 291 20.9 41.8 0.00 0.00 0.00 70 1020.6